When you browse on this site, cookies collect data to enhance your experience and personalize the content and advertising you see.
Visit our Privacy Policy to learn more. By continuing to use the site, you agree to this use of cookies and data.
  • en Belgique
  • Liste des pays
  • À 7 jours
  • Température de l'eau
  • Carte météo
  • Widgets météo
  • user-avatar
    Se connecter

    Météo par heure à Tuzla

    Ce jour, 21 Septembre, Samedi

    Heure Température Précipitation Vent Pression Humidité
    00:00 +7°C° 0 mm 1 m/s 728 mmHg 63%
    01:00 +7°C° 0 mm 1 m/s 728 mmHg 65%
    02:00 +7°C° 0 mm 1 m/s 728 mmHg 66%
    03:00 +6°C° 0 mm 1 m/s 728 mmHg 67%
    04:00 +6°C° 0 mm 1 m/s 728 mmHg 68%
    05:00 +7°C° 0 mm 1 m/s 728 mmHg 64%
    06:00 +8°C° 0 mm 1 m/s 728 mmHg 61%
    07:00 +9°C° 0 mm 1 m/s 728 mmHg 58%
    08:00 +12°C° 0 mm 1 m/s 728 mmHg 50%
    09:00 +15°C° 0 mm 1 m/s 728 mmHg 42%
    10:00 +19°C° 0 mm 1 m/s 728 mmHg 34%
    11:00 +20°C° 0 mm 1 m/s 728 mmHg 31%
    12:00 +21°C° 0 mm 1 m/s 728 mmHg 29%
    13:00 +23°C° 0 mm 1 m/s 728 mmHg 27%
    14:00 +22°C° 0 mm 1 m/s 727 mmHg 29%
    15:00 +22°C° 0 mm 1 m/s 727 mmHg 30%
    16:00 +22°C° 0 mm 1 m/s 727 mmHg 32%
    17:00 +19°C° 0 mm 1 m/s 726 mmHg 38%
    18:00 +15°C° 0 mm 1 m/s 726 mmHg 44%
    19:00 +12°C° 0 mm 1 m/s 726 mmHg 50%
    20:00 +12°C° 0 mm 1 m/s 726 mmHg 52%
    21:00 +11°C° 0 mm 1 m/s 726 mmHg 54%
    22:00 +11°C° 0 mm 1 m/s 726 mmHg 56%
    23:00 +10°C° 0 mm 1 m/s 726 mmHg 58%

    Demain, 22 Septembre, Dimanche

    Heure Température Précipitation Vent Pression Humidité
    00:00 +10°C° 0 mm 1 m/s 726 mmHg 60%
    01:00 +10°C° 0 mm 1 m/s 725 mmHg 62%
    02:00 +10°C° 0 mm 1 m/s 725 mmHg 63%
    03:00 +10°C° 0 mm 1 m/s 725 mmHg 65%
    04:00 +10°C° 0 mm 1 m/s 725 mmHg 67%
    05:00 +11°C° 0 mm 1 m/s 725 mmHg 63%
    06:00 +12°C° 0 mm 1 m/s 724 mmHg 60%
    07:00 +13°C° 0 mm 1 m/s 724 mmHg 57%
    08:00 +16°C° 0 mm 1 m/s 725 mmHg 48%
    09:00 +21°C° 0 mm 1 m/s 725 mmHg 40%
    10:00 +24°C° 0 mm 1 m/s 725 mmHg 31%
    11:00 +25°C° 0 mm 1 m/s 724 mmHg 30%
    12:00 +27°C° 0 mm 1 m/s 724 mmHg 28%
    13:00 +28°C° 0 mm 1 m/s 724 mmHg 27%
    14:00 +27°C° 0 mm 1 m/s 723 mmHg 31%
    15:00 +26°C° 0 mm 1 m/s 723 mmHg 35%
    16:00 +26°C° 0 mm 1 m/s 722 mmHg 39%
    17:00 +24°C° 0 mm 1 m/s 722 mmHg 41%
    18:00 +21°C° 0 mm 1 m/s 722 mmHg 44%
    19:00 +19°C° 0 mm 1 m/s 722 mmHg 47%
    20:00 +19°C° 0 mm 1 m/s 722 mmHg 49%
    21:00 +18°C° 0 mm 1 m/s 722 mmHg 52%
    22:00 +17°C° 0 mm 2 m/s 722 mmHg 55%
    23:00 +16°C° 0 mm 2 m/s 722 mmHg 58%

    Après-demain, 23 Septembre, Lundi

    Heure Température Précipitation Vent Pression Humidité
    00:00 +15°C° 0 mm 2 m/s 722 mmHg 61%
    01:00 +15°C° 0 mm 2 m/s 722 mmHg 64%
    02:00 +14°C° 0 mm 2 m/s 722 mmHg 63%
    03:00 +14°C° 0 mm 2 m/s 721 mmHg 63%
    04:00 +14°C° 0 mm 2 m/s 721 mmHg 63%
    05:00 +15°C° 0 mm 2 m/s 721 mmHg 62%
    06:00 +15°C° 0 mm 2 m/s 721 mmHg 62%
    07:00 +16°C° 0 mm 2 m/s 721 mmHg 62%
    08:00 +16°C° 0.3 mm 2 m/s 721 mmHg 68%
    09:00 +16°C° 0.3 mm 2 m/s 721 mmHg 74%
    10:00 +17°C° 0.3 mm 2 m/s 721 mmHg 80%
    11:00 +19°C° 0.1 mm 1 m/s 721 mmHg 78%
    12:00 +20°C° 0.1 mm 1 m/s 721 mmHg 77%
    13:00 +21°C° 0.1 mm 1 m/s 721 mmHg 75%
    14:00 +22°C° 0.3 mm 1 m/s 721 mmHg 74%
    15:00 +23°C° 0.3 mm 1 m/s 720 mmHg 73%
    16:00 +24°C° 0.3 mm 1 m/s 720 mmHg 72%
    17:00 +22°C° 0.5 mm 1 m/s 720 mmHg 77%
    18:00 +20°C° 0.5 mm 1 m/s 720 mmHg 83%
    19:00 +19°C° 0.5 mm 1 m/s 720 mmHg 89%
    20:00 +18°C° 0.5 mm 1 m/s 720 mmHg 90%
    21:00 +18°C° 0.5 mm 1 m/s 720 mmHg 91%
    22:00 +18°C° 0.5 mm 1 m/s 720 mmHg 93%
    23:00 +16°C° 0.2 mm 1 m/s 720 mmHg 93%

    24 Septembre, Mardi

    Heure Température Précipitation Vent Pression Humidité
    00:00 +16°C° 0.2 mm 1 m/s 720 mmHg 94%
    01:00 +16°C° 0.2 mm 1 m/s 720 mmHg 95%
    02:00 +16°C° 0.1 mm 1 m/s 720 mmHg 95%
    03:00 +15°C° 0.1 mm 0 m/s 720 mmHg 95%
    04:00 +14°C° 0.1 mm 0 m/s 720 mmHg 96%
    05:00 +15°C° 0.3 mm 1 m/s 720 mmHg 96%
    06:00 +15°C° 0.3 mm 1 m/s 720 mmHg 97%
    07:00 +15°C° 0.3 mm 1 m/s 720 mmHg 97%
    08:00 +16°C° 0.1 mm 1 m/s 720 mmHg 95%
    09:00 +16°C° 0.1 mm 1 m/s 720 mmHg 92%
    10:00 +16°C° 0.1 mm 1 m/s 721 mmHg 90%
    11:00 +18°C° 0 mm 1 m/s 721 mmHg 84%
    12:00 +19°C° 0 mm 1 m/s 720 mmHg 78%
    13:00 +20°C° 0 mm 1 m/s 720 mmHg 72%
    14:00 +20°C° 0 mm 1 m/s 720 mmHg 70%
    15:00 +20°C° 0 mm 1 m/s 720 mmHg 69%
    16:00 +20°C° 0 mm 1 m/s 720 mmHg 68%
    17:00 +19°C° 0 mm 1 m/s 720 mmHg 74%
    18:00 +18°C° 0 mm 1 m/s 720 mmHg 80%
    19:00 +14°C° 0 mm 0 m/s 720 mmHg 85%
    20:00 +14°C° 0 mm 0 m/s 720 mmHg 87%
    21:00 +14°C° 0 mm 1 m/s 720 mmHg 89%
    22:00 +13°C° 0 mm 1 m/s 720 mmHg 91%
    23:00 +13°C° 0 mm 1 m/s 720 mmHg 91%

    25 Septembre, Mercredi

    Heure Température Précipitation Vent Pression Humidité
    00:00 +13°C° 0 mm 1 m/s 720 mmHg 92%
    01:00 +13°C° 0 mm 1 m/s 720 mmHg 92%
    02:00 +12°C° 0 mm 1 m/s 719 mmHg 92%
    03:00 +12°C° 0 mm 1 m/s 719 mmHg 93%
    04:00 +12°C° 0 mm 1 m/s 719 mmHg 93%
    05:00 +13°C° 0 mm 1 m/s 719 mmHg 90%
    06:00 +14°C° 0 mm 1 m/s 719 mmHg 87%
    07:00 +15°C° 0 mm 1 m/s 719 mmHg 83%
    08:00 +18°C° 0 mm 1 m/s 720 mmHg 73%
    09:00 +21°C° 0 mm 1 m/s 720 mmHg 62%
    10:00 +24°C° 0 mm 1 m/s 720 mmHg 51%
    11:00 +25°C° 0 mm 1 m/s 720 mmHg 47%
    12:00 +27°C° 0 mm 1 m/s 720 mmHg 43%
    13:00 +28°C° 0 mm 1 m/s 720 mmHg 38%
    14:00 +27°C° 0 mm 1 m/s 720 mmHg 42%
    15:00 +26°C° 0 mm 1 m/s 719 mmHg 45%
    16:00 +25°C° 0 mm 1 m/s 719 mmHg 48%
    17:00 +23°C° 0 mm 1 m/s 719 mmHg 53%
    18:00 +21°C° 0 mm 1 m/s 719 mmHg 57%
    19:00 +19°C° 0 mm 1 m/s 719 mmHg 61%
    20:00 +18°C° 0 mm 1 m/s 719 mmHg 67%
    21:00 +16°C° 0 mm 1 m/s 719 mmHg 72%
    22:00 +16°C° 0 mm 1 m/s 719 mmHg 78%
    23:00 +15°C° 0 mm 1 m/s 719 mmHg 81%

    26 Septembre, Jeudi

    Heure Température Précipitation Vent Pression Humidité
    00:00 +15°C° 0 mm 1 m/s 719 mmHg 84%
    01:00 +15°C° 0 mm 1 m/s 719 mmHg 86%
    02:00 +15°C° 0 mm 1 m/s 719 mmHg 87%
    03:00 +15°C° 0 mm 1 m/s 719 mmHg 88%
    04:00 +15°C° 0 mm 1 m/s 719 mmHg 89%
    05:00 +15°C° 0 mm 1 m/s 719 mmHg 86%
    06:00 +16°C° 0 mm 1 m/s 719 mmHg 83%
    07:00 +18°C° 0 mm 1 m/s 720 mmHg 80%
    08:00 +18°C° 0.2 mm 1 m/s 720 mmHg 80%
    09:00 +19°C° 0.2 mm 1 m/s 720 mmHg 80%
    10:00 +19°C° 0.2 mm 1 m/s 721 mmHg 80%
    11:00 +19°C° 0.4 mm 1 m/s 721 mmHg 83%
    12:00 +17°C° 0.4 mm 0 m/s 721 mmHg 87%
    13:00 +17°C° 0.4 mm 0 m/s 721 mmHg 90%
    14:00 +16°C° 0.2 mm 0 m/s 721 mmHg 90%
    15:00 +18°C° 0.2 mm 1 m/s 721 mmHg 91%
    16:00 +18°C° 0.2 mm 1 m/s 721 mmHg 92%
    17:00 +18°C° 0 mm 1 m/s 721 mmHg 94%
    18:00 +15°C° 0 mm 0 m/s 722 mmHg 95%
    19:00 +14°C° 0 mm 0 m/s 722 mmHg 97%
    20:00 +14°C° 0 mm 0 m/s 722 mmHg 97%
    21:00 +14°C° 0 mm 0 m/s 722 mmHg 97%
    22:00 +14°C° 0 mm 0 m/s 723 mmHg 97%
    23:00 +14°C° 0 mm 0 m/s 723 mmHg 96%
    Voir plus